Torna al catalogo

SJ-9A

AttivoScienzaSSO
NORAD 38860·PAYLOAD·🇨🇳 China

Lanciato Oct 14, 2012 da Taiyuan Satellite Launch Center

Loading…

Prossimi Passaggi (prossime 24 ore)

TLE

AggiornatoSource: Space-Track

Epoca: Sep 14, 2026, 13:06 UTC

1 38860U 12056A   26257.54605898  .00000863  00000-0  10527-3 0  9991
2 38860  97.6824 226.3243 0024631 326.4700  33.4956 14.85640633712856

Traccia SJ-9A in tempo reale con AllMySat

Download on the App Store